Cosmos 1340 - Orbit

View from above orbital plane
View from above orbital plane
View from above satellite
View from above satellite

Ground track
Ground track

The orbit data is extracted from the following two-line orbital elements,

1 13067U 82013A   13168.17349286  .00001848  00000-0  11292-3 0  1249
2 13067 081.1946 027.3855 0002305 007.3477 141.1775 15.09836059706528
Epoch (UTC): 17 June 2013 04:09:49
Eccentricity: 0.0002305
inclination: 81.1946°
perigee height: 535 km
apogee height: 538 km
right ascension of ascending node: 27.3855°
argument of perigee: 7.3477°
revolutions per day: 15.09836059
mean anomaly at epoch: 141.1775°
orbit number at epoch: 70652

The dashed part of the orbit path shows where the satellite is in the earth's shadow,  

Developed and maintained by Chris Peat, Heavens-Above GmbH. Please read the updated FAQ before sending e-mail. Imprint. DLR